TimeCET,TemperatureF,Dew PointF,Humidity,Sea Level PressureIn,VisibilityMPH,Wind Direction,Wind SpeedMPH,Gust SpeedMPH,PrecipitationIn,Events,Conditions,WindDirDegrees,DateUTC
12:05 AM,30.2,28.4,93,29.68,5.0,ENE,5.8,-,N/A,Snow,Light Snow,70,2013-02-11 23:05:00
12:25 AM,30.2,28.4,93,29.71,6.2,ENE,8.1,-,N/A,Snow,Light Snow,70,2013-02-11 23:25:00
12:28 AM,30.2,28.4,93,29.71,6.2,ENE,8.1,-,N/A,Snow,Light Snow Grains,70,2013-02-11 23:28:00
1:00 AM,31,27,77,29.75,9,ENE,6.7,,,Snow,Snow,70,2013-02-12 00:00:00
1:01 AM,30.2,26.6,86,29.71,6.2,East,6.9,-,N/A,,Overcast,80,2013-02-12 00:01:00
1:25 AM,30.2,24.8,80,29.71,6.2,East,6.9,-,N/A,,Overcast,80,2013-02-12 00:25:00
2:25 AM,30.2,23.0,75,29.71,6.2,ENE,9.2,-,N/A,,Mostly Cloudy,70,2013-02-12 01:25:00
3:25 AM,26.6,21.2,80,29.74,6.2,NE,8.1,-,N/A,,Clear,40,2013-02-12 02:25:00
4:00 AM,26,22,77,29.80,6,NE,8.9,,,,Clear,50,2013-02-12 03:00:00
4:25 AM,26.6,21.2,80,29.77,5.6,ENE,8.1,-,N/A,,Clear,60,2013-02-12 03:25:00
5:18 AM,24.8,21.2,86,29.77,4.3,ENE,8.1,-,N/A,,Clear,60,2013-02-12 04:18:00
5:25 AM,24.8,21.2,86,29.77,4.3,ENE,8.1,-,N/A,,Clear,60,2013-02-12 04:25:00
7:00 AM,24,20,80,29.85,4,ENE,8.9,,,,,60,2013-02-12 06:00:00
8:25 AM,23.0,19.4,86,29.86,3.7,NE,6.9,-,N/A,,Partly Cloudy,50,2013-02-12 07:25:00
9:25 AM,24.8,23.0,93,29.86,3.7,NE,9.2,-,N/A,,Mostly Cloudy,50,2013-02-12 08:25:00
9:50 AM,26.6,23.0,86,29.86,3.7,ENE,8.1,-,N/A,,Mostly Cloudy,60,2013-02-12 08:50:00
10:00 AM,26,23,83,29.89,4,ENE,8.9,,,,Mostly Cloudy,60,2013-02-12 09:00:00
10:25 AM,28.4,23.0,80,29.89,4.3,ENE,9.2,-,N/A,,Mostly Cloudy,60,2013-02-12 09:25:00
11:18 AM,28.4,23.0,80,29.92,5.6,NE,9.2,-,N/A,,Mostly Cloudy,50,2013-02-12 10:18:00
11:25 AM,28.4,23.0,80,29.92,5.0,NE,9.2,-,N/A,,Mostly Cloudy,50,2013-02-12 10:25:00
12:25 PM,30.2,23.0,75,29.92,5.6,NE,9.2,-,N/A,,Mostly Cloudy,50,2013-02-12 11:25:00
1:00 PM,30,23,66,30.00,6,NE,8.9,,,,Overcast,50,2013-02-12 12:00:00
1:25 PM,30.2,23.0,75,29.95,5.6,NE,10.4,-,N/A,,Mostly Cloudy,50,2013-02-12 12:25:00
2:25 PM,30.2,23.0,75,29.95,6.2,ENE,10.4,-,N/A,,Mostly Cloudy,60,2013-02-12 13:25:00
3:25 PM,30.2,23.0,75,29.95,5.0,NE,6.9,-,N/A,,Mostly Cloudy,40,2013-02-12 14:25:00
4:00 PM,30,22,64,30.00,5,NE,8.9,,,,Overcast,50,2013-02-12 15:00:00
4:25 PM,30.2,21.2,69,29.95,5.6,ENE,6.9,-,N/A,,Mostly Cloudy,70,2013-02-12 15:25:00
5:25 PM,30.2,21.2,69,29.95,3.7,NE,5.8,-,N/A,,Mostly Cloudy,50,2013-02-12 16:25:00
6:07 PM,30.2,21.2,69,29.95,3.1,NE,6.9,-,N/A,,Mostly Cloudy,40,2013-02-12 17:07:00
6:25 PM,30.2,21.2,69,29.95,3.1,ENE,6.9,-,N/A,,Mostly Cloudy,60,2013-02-12 17:25:00
7:00 PM,29,20,59,30.01,3,ENE,4.5,,,,Overcast,60,2013-02-12 18:00:00
7:25 PM,30.2,19.4,64,29.98,3.7,ENE,6.9,-,N/A,,Mostly Cloudy,60,2013-02-12 18:25:00
8:25 PM,30.2,21.2,69,29.98,4.3,ENE,5.8,-,N/A,,Mostly Cloudy,60,2013-02-12 19:25:00
9:25 PM,30.2,21.2,69,30.04,4.3,ENE,4.6,-,N/A,,Mostly Cloudy,70,2013-02-12 20:25:00
10:00 PM,29,20,60,30.07,4,ENE,4.5,,,,Mostly Cloudy,60,2013-02-12 21:00:00
10:25 PM,30.2,19.4,64,30.06,3.7,NE,5.8,-,N/A,,Mostly Cloudy,40,2013-02-12 21:25:00
11:25 PM,30.2,21.2,69,30.06,3.7,Variable,1.2,-,N/A,,Overcast,0,2013-02-12 22:25:00